Flag for Kazakhstan Weather past 2 weeks in Shymkent, Kazakhstan

Now
88 °F

More clouds than sun.


Feels Like: 84 °F
Forecast: 53 / 84 °F
Wind: 13 mph from West

Location: Shymkent Airport

Current Time: Jul 28, 2014 at 11:53:53 AM

Latest Report: Jul 28, 2014 at 11:00 AM


Visibility: N/A

Pressure: 29.62 "Hg

Humidity: 19%

Dew point: 41 °F

Location of ShymkentLocation

Historic Weather in Shymkent — Graph

°F

Shymkent temperature yesterday

Maximum temperature yesterday: 100 °F (at 5:30 PM)
Minimum temperature yesterday: 63 °F (at 5:30 AM)
Average temperature yesterday: 85 °F

Past Weeks' High & Low Weather Summary

 TemperatureHumidityPressure
High100 °F (Jul 27, 5:30 PM)55% (Jul 15, 6:00 AM)29.92 "Hg (Jul 15, 6:00 AM)
Low57 °F (Jul 18, 6:00 AM)6% (Jul 22, 4:00 PM)29.59 "Hg (Jul 20, 2:30 AM)
Average80 °F21%29.76 "Hg
* Reported Jul 13 10:00 AM — Jul 28 10:00 AM, Shymkent, Weather by CustomWeather, © 2014

Note: Actual official high and low records may vary slightly from our data, if they occured in-between our weather recording intervals... More about our weather records

Advertising

Shymkent weather history for previous 24 hours

 ConditionsComfort  
Time TempWeatherWind HumidityBarometerVisibility
10:00 AM
Jul 28
86 °FMore clouds than sun.10 mph24%29.59 "HgN/A
9:30 AM88 °FMore clouds than sun.6 mph19%29.59 "HgN/A
9:00 AM86 °FMore clouds than sun.10 mph19%29.59 "HgN/A
8:30 AM84 °FMore clouds than sun.10 mph23%29.59 "HgN/A
8:00 AM82 °FMore clouds than sun.10 mph26%29.59 "HgN/A
7:30 AM82 °FMore clouds than sun.10 mph26%29.59 "Hg5 mi
7:00 AM82 °FMore clouds than sun.10 mph23%29.59 "Hg5 mi
6:30 AM82 °FMore clouds than sun.10 mph21%29.62 "Hg5 mi
6:00 AM82 °FMore clouds than sun.10 mph20%29.59 "Hg5 mi
5:30 AM82 °FMore clouds than sun.10 mph20%29.59 "Hg5 mi
5:00 AM82 °FMostly cloudy.10 mph20%29.59 "Hg5 mi
4:30 AM82 °FMostly cloudy.10 mph20%29.59 "Hg5 mi
4:00 AM84 °FMostly cloudy.10 mph18%29.59 "Hg5 mi
3:30 AM84 °FMostly cloudy.10 mph19%29.59 "Hg5 mi
3:00 AM84 °FMostly cloudy.10 mph18%29.59 "Hg5 mi
2:30 AM84 °FMostly cloudy.10 mph16%29.59 "Hg5 mi
2:00 AM86 °FMostly cloudy.10 mph15%29.59 "Hg5 mi
1:30 AM86 °FMostly cloudy.10 mph15%29.62 "Hg5 mi
1:00 AM88 °FMostly cloudy.10 mph13%29.62 "Hg5 mi
12:30 AM88 °FMostly cloudy.10 mph15%29.62 "Hg5 mi
12:00 AM88 °FMostly cloudy.10 mph15%29.62 "Hg5 mi
11:30 PM
Jul 27
84 °FPartly cloudy.8 mph23%29.62 "Hg4 mi
11:00 PM84 °FPartly cloudy.6 mph27%29.62 "Hg4 mi
10:30 PM86 °FPartly cloudy.1 mph24%29.62 "Hg4 mi
10:00 PM88 °FPartly cloudy.No wind18%29.65 "HgN/A
9:30 PM88 °FPartly cloudy.3 mph17%29.65 "HgN/A
9:00 PM90 °FPartly cloudy.No wind15%29.65 "HgN/A
8:00 PM93 °FPassing clouds.No wind11%29.65 "HgN/A
7:30 PM95 °FPartly sunny.No wind10%29.65 "HgN/A
7:00 PM97 °FSunny.1 mph10%29.68 "Hg10 mi
6:30 PM99 °FSunny.1 mph12%29.68 "Hg10 mi
6:00 PM99 °FSunny.1 mph9%29.68 "Hg10 mi
5:30 PM100 °FSunny.1 mph8%29.71 "Hg10 mi
5:00 PM99 °FPassing clouds.3 mph8%29.71 "HgN/A
4:30 PM99 °FPassing clouds.3 mph8%29.71 "HgN/A
4:00 PM99 °FSunny.3 mph9%29.74 "Hg10 mi
3:30 PM99 °FSunny.3 mph9%29.74 "Hg10 mi
3:00 PM99 °FSunny.1 mph9%29.74 "Hg10 mi
2:30 PM99 °FSunny.1 mph9%29.77 "Hg10 mi
2:00 PM99 °FSunny.3 mph10%29.77 "Hg10 mi
1:30 PM97 °FPassing clouds.3 mph10%29.77 "HgN/A
1:00 PM97 °FSunny.1 mph9%29.77 "Hg10 mi
12:30 PM97 °FPassing clouds.3 mph9%29.80 "HgN/A
12:00 PM97 °FSunny.3 mph9%29.80 "Hg10 mi
11:00 AM95 °FSunny.1 mph9%29.80 "Hg10 mi
Weather by CustomWeather, © 2014

See weather overviewHow to use our weather pages